Flag for Uruguay Weather past 2 weeks in Maldonado, Uruguay

Now
55 °F

Low clouds.


Feels Like: 52 °F
Forecast: 52 / 62 °F
Wind: 13 mph from Southwest

Location: Capitan Corbeta

Current Time: Sep 21, 2014 at 1:12:09 AM

Latest Report: Sep 20, 2014 at 11:00 PM


Visibility: N/A

Pressure: 30.04 "Hg

Humidity: 88%

Dew point: 52 °F

Location of MaldonadoLocation

Historic Weather in Maldonado — Graph

°F

Maldonado temperature yesterday

Maximum temperature yesterday: 61 °F (at 10:00 AM)
Minimum temperature yesterday: 54 °F (at 5:00 PM)
Average temperature yesterday: 56 °F

Past Weeks' High & Low Weather Summary

 TemperatureHumidityPressure
High75 °F (Sep 9, 9:00 AM)100% (Sep 9, 3:00 PM)30.18 "Hg (Sep 9, 3:00 PM)
Low41 °F (Sep 12, 7:00 AM)34% (Sep 11, 4:00 PM)29.50 "Hg (Sep 9, 9:00 AM)
Average57 °F81%29.97 "Hg
* Reported Sep 5 11:00 PM — Sep 20 11:00 PM, Maldonado, Weather by CustomWeather, © 2014

Note: Actual official high and low records may vary slightly from our data, if they occured in-between our weather recording intervals... More about our weather records

Advertising

Maldonado weather history for previous 24 hours

 ConditionsComfort  
Time TempWeatherWind HumidityBarometerVisibility
11:00 PM
Sep 20
55 °FLow clouds.13 mph88%30.04 "HgN/A
10:00 PM54 °FDrizzle. Low clouds.13 mph88%30.04 "HgN/A
9:00 PM54 °FOvercast.17 mph77%30.07 "HgN/A
8:00 PM54 °FCool.16 mph88%30.04 "HgN/A
7:00 PM54 °FOvercast.15 mph82%30.04 "HgN/A
6:00 PM54 °FPassing clouds.21 mph82%30.01 "Hg6 mi
5:00 PM54 °FOvercast.20 mph82%30.01 "Hg6 mi
4:00 PM55 °FMore clouds than sun.17 mph82%29.98 "Hg6 mi
3:00 PM55 °FOvercast.16 mph88%29.95 "Hg4 mi
2:00 PM57 °FOvercast.17 mph82%29.95 "Hg6 mi
10:00 AM61 °FFog.12 mph88%29.92 "Hg3 mi
9:00 AM57 °FFog.7 mph94%29.89 "Hg1 mi
8:00 AM55 °FFog.6 mph100%29.89 "Hg3 mi
7:00 AM55 °FFog.3 mph94%29.89 "Hg5 mi
3:00 AM57 °FFog.7 mph94%29.89 "Hg3 mi
2:00 AM57 °FFog.6 mph94%29.89 "Hg3 mi
1:00 AM57 °FFog.3 mph94%29.89 "Hg3 mi
Weather by CustomWeather, © 2014

See weather overviewHow to use our weather pages